Regional Weather Roundup
Issued by NWS Austin/San Antonio, TX

Home | Current Version | Previous Version | Text Only | Print | Product List | Glossary On
Versions: 1 2 3 4 5 6 7 8 9 10 11 12 13 14 15 16 17 18 19 20 21 22 23 24 25 26 27 28 29 30 31 32 33 34 35 36 37 38 39 40 41 42 43 44 45 46 47 48 49 50
322
ASUS44 KEWX 210801
RWREWX
SOUTH TEXAS REGIONAL WEATHER ROUNDUP
NATIONAL WEATHER SERVICE AUSTIN/SAN ANTONIO TX
300 AM CDT MON OCT 21 2019

NOTE: "FAIR" INDICATED FEW OR NO CLOUDS BELOW 12,000 FEET WITH NO
SIGNIFICANT WEATHER AND/OR OBSTRUCTIONS TO VISIBILITY.

* - THESE STATIONS ARE NOT NWS OR FAA STATIONS...AND ARE NOT SUBJECT
    TO NWS AND FAA QUALITY CONTROL.

TXZ171-172-183>190-210900-
TEXAS HILL COUNTRY AND EDWARDS PLATEAU

CITY           SKY/WX    TMP DP  RH WIND       PRES   REMARKS
JUNCTION       MOCLDY    62  59  90 SW5       29.83R
*LLANO         LGT RAIN  66  63  88 W10       29.81S
BURNET         LGT RAIN  64  61  90 SW5       29.81R
*HORSESHOE BAY TSTM      64  61  88 W12G25    29.81R
*KERRVILLE     RAIN      61  57  87 NW5G22    29.86R
*FREDERICKSBRG CLOUDY    62  59  91 S3        29.82F
*ROCKSPRINGS   HVY RAIN  59  55  88 NW22G32   29.90S VSB 3/4
*BOERNE        CLEAR     73  73 100 S8        29.76F
*CASTROVILLE   LGT RAIN  79  73  80 NW5       29.77R
HONDO          LGT RAIN  78  73  84 E5        29.75R
*UVALDE        CLOUDY    78  73  85 CALM      29.75S
DEL RIO        CLEAR     77  70  79 CALM      29.71R
LAUGHLIN AFB   CLEAR     73  70  91 E7        29.73R
SPOFFORD       CLOUDY    77  73  86 SE6       29.67S
*EAGLE PASS    CLOUDY    79  72  78 S5        29.71F
CARRIZO SPRGS  CLOUDY    79  73  83 CALM      29.68S
*FAITH RANCH   CLOUDY    79  75  89 S5        29.69S
$$

TXZ173-191>194-202-209-217>225-228-210900-
CENTRAL AND SOUTH CENTRAL TEXAS

CITY           SKY/WX    TMP DP  RH WIND       PRES   REMARKS
GEORGETOWN     HVY RAIN  68  65  90 W16G25    29.77R
AUSTIN/BERGSTM PTCLDY    80  75  84 S15       29.69F
AUSTIN/MABRY   CLOUDY    80  73  79 W5        29.73R
*AUSTIN/EXEC   MOCLDY    77  73  88 SW12      29.71F
*LAGO VISTA    TSTM      67  62  82 NW13G28   29.81R
SAN MARCOS     PTCLDY    79  74  84 S12       29.72F
NEW BRAUNFELS  LGT RAIN  80  74  81 S12       29.71F
RANDOLPH AFB   LGT RAIN  79  75  89 S12       29.73S
SEGUIN         LGT RAIN  78  75  89 W5        29.78R
KELLY FIELD    PTCLDY    79  74  82 W5        29.73R
SAN ANTONIO    LGT RAIN  79  74  84 S12       29.74S
STINSON FIELD  CLOUDY    78  75  90 CALM      29.72R
PLEASANTON     CLOUDY    78  73  86 CALM      29.71R
*LA GRANGE     MOCLDY    81  79  92 S6        29.70R HX  91
*GIDDINGS      CLOUDY    80  76  88 SW8       29.72S
*GONZALES      CLOUDY    80  78  94 SW3       29.72R
$$

TXZ163>164-176>182-195>201-210>213-226-227-235-210900-
SOUTHEAST TEXAS

CITY           SKY/WX    TMP DP  RH WIND       PRES   REMARKS
COLLEGE STN    MOCLDY    82  75  79 S10       29.70R
*BRYAN         CLOUDY    82  78  88 S10G17    29.71F HX  90
*CALDWELL      CLOUDY    79  75  87 S10G21    29.71F
*CROCKETT      CLOUDY    77  73  88 S10G17    29.73R
*BRENHAM       CLOUDY    81  76  86 S8        29.72R
HUNTSVILLE     MOCLDY    81  73  76 S15G23    29.71R
CONROE         CLOUDY    80  75  84 S15       29.73R
HOUSTON BUSH   MOCLDY    81  75  82 S7        29.71F
HOUSTON HOBBY  MOCLDY    81  75  82 S10       29.70F
*HOUSTON SW AP CLOUDY    80  76  90 S5        29.72F
PEARLAND       CLOUDY    82  76  81 S14G20    29.72F
HOUSTON HOOKS  MOCLDY    80  74  81 S8        29.72R
ELLINGTON FLD  MOCLDY    79  75  89 S13       29.69F
SUGAR LAND     CLOUDY    81  77  88 S9        29.70F
*HOUSTON EXEC  MOCLDY    79  77  94 S10G16    29.72F
*CLEVELAND MUN MOCLDY    78  78  99 S7        29.74R FOG
*WHARTON       LGT RAIN  79  75  89 S12G22    29.71F
*COLUMBUS      CLOUDY    77  73  88 S8        29.72S
*EAGLE LAKE    CLOUDY    82  79  90 S12G18    29.71  HX  92
$$

TXZ214>216-236>238-210900-
THE UPPER TEXAS COAST

CITY           SKY/WX    TMP DP  RH WIND       PRES   REMARKS
*ORANGE        CLOUDY    81  79  94 S8        29.76F
PORT ARTHUR    FAIR      81  76  84 S13       29.72F
GALVESTON      FAIR      82  78  88 S20       29.72F HX  91
ANGLETON       CLOUDY    81  77  88 S15       29.70F
*BAY CITY      PTCLDY    81  76  86 S10G18    29.71F
PALACIOS       PTCLDY    79  74  84 S14       29.70F
$$

TXZ229>234-239>247-210900-
TEXAS COASTAL BEND AND RIO GRANDE PLAINS

CITY           SKY/WX    TMP DP  RH WIND       PRES   REMARKS
VICTORIA       CLOUDY    81  77  88 S12       29.70S
*BEEVILLE      MOCLDY    83  78  85 S9        29.68S HX  93
ROCKPORT       MOCLDY    83  77  82 S10G18    29.68F HX  92
*PORT ARANSAS  MOCLDY    81  79  91 S10       29.69F HX  90
*PORT LAVACA   PTCLDY    82  80  91 S12G18    29.71S HX  94
*INGLESIDE     MOCLDY    82  80  91 S12       29.68F HX  94
CORPUS CHRISTI CLOUDY    83  78  85 S17       29.68F HX  93
CORPUS NAS     CLOUDY    81  81 100 S13       29.67F HX  92
*ROBSTOWN      PTCLDY    82  77  85 S16       29.71S HX  90
ALICE          CLOUDY    82  77  84 S14       29.67F HX  90
KINGSVILLE NAS CLOUDY    83  78  85 S12       29.67F HX  93
COTULLA        CLOUDY    81  76  84 S6        29.68S
LAREDO         CLEAR     79  74  84 SE12      29.65F
$$

TXZ248>255-210900-
DEEP SOUTH TEXAS

CITY           SKY/WX    TMP DP  RH WIND       PRES   REMARKS
BROWNSVILLE    RAIN      75  72  90 S24G31    29.74F
PORT ISABEL    TSTM      76  72  87 S13       29.76S FOG
HARLINGEN      RAIN      74  73  97 SE17      29.70S
*HEBBRONVILLE  CLOUDY    79  74  84 S5        29.70F
MCALLEN        LGT RAIN  76  73  91 S12G22    29.68S
*WESLACO       LGT RAIN  74  72  93 S13       29.68
FALFURRIAS     PTCLDY    83  77  83 SE9       29.67F HX  91
EDINBURG       LGT RAIN  76  73  90 S12       29.66F
*ZAPATA        NOT AVBL
$$

TXZ213>215-236>238-242>244-246-247-251-254-255-210900-
CMAN STATIONS

STATION/POSITION TIME  TEMP    WIND        PRES    WAVE
                       AIR SEA DIR/SP/G            HT/PER
                 (UTC) (F)     (DEG/KT/KT) (MB)    (FT/S)
SABINE PASS      0730   80 78  170/ 11/ 18 1008.6
SEA RIM ST PARK  0700   80     170/ 15/ 19 1007.2
NORTH JETTY/GLS  0718   82 77  180/ 21/ 25 1005.4
EAGLE POINT      0718   81 76  190/ 19/ 26 1006.2
MORGANS POINT    0730   81 77  180/ 10/ 14 1006.6
PORT O`CONNOR    0730   81 81  180/ 15/ 18 1005.4
PORT ARANSAS     0700   81 80  150/ 13/ 15 1005.7
MALAQUITE BEACH  0730   81 82  140/ 18/ 20 1005.3
BAFFIN BAY       0730   81 81  140/ 18/ 21 1005.3
PORT ISABEL      0730   76 81  190/ 21/ 29 1009.1
$$




USA.gov is the U.S. government's official web portal to all federal, state and local government web resources and services.